Location: Shannon
(40.5500°S, 175.4167°E)
Time: 20:10:00
(UTC+00:00)

Cosmos 2181 Rocket - Pass Details

Date: 17 November 2025
Orbit: 950 x 1015 km, 82.9° (Epoch: 14 December)

Event Time Altitude Azimuth Distance (km) Brightness Sun altitude
Rises 12:25:49 0° 189° (S) 3,764 8.2 -30.1°
Reaches altitude 10° 12:28:22 10° 189° (S) 2,815 7.2 -30.1°
Maximum altitude 12:34:52 81° 275° (W) 1,039 4.0 -29.9°
Enters shadow 12:34:54 81° 280° (W) 1,039 3.9 -29.9°
